Regional Weather Roundup
Issued by NWS

Home | Current Version | Previous Version | Graphics & Text | Print | Product List | Glossary On
Versions: 1 2 3 4 5 6 7 8 9 10 11 12 13 14 15 16 17 18 19 20 21 22 23 24 25 26 27 28 29 30 31 32 33 34 35 36 37 38 39 40 41 42 43 44 45 46 47 48 49 50
000
ASUS43 KDTX 280110
RWRMI
MICHIGAN HOURLY REGIONAL WEATHER ROUNDUP
NATIONAL WEATHER SERVICE DETROIT/PONTIAC MI
900 PM EDT MON MAR 27 2017

NOTE: "FAIR" INDICATES FEW OR NO CLOUDS BELOW 12,000 FEET WITH NO
SIGNIFICANT WEATHER AND/OR OBSTRUCTION TO VISIBILITY.

MIZ047>049-052>055-059>063-066>070-074>076-081>083-280200-
SOUTHEAST LOWER MICHIGAN

CITY           SKY/WX    TMP DP  RH WIND       PRES   REMARKS
ADRIAN         CLOUDY    53  49  86 CALM      29.91R
ALMA           CLOUDY    46  42  85 W8        29.93S
ANN ARBOR      CLOUDY    56  48  74 NW8       29.90R
BAD AXE        CLOUDY    40  39  97 CALM      29.94R
CARO           CLOUDY    47  44  90 N3        29.92R
DETROIT CITY   CLOUDY    56  50  80 W3        29.89R
DETROIT        CLOUDY    58  50  75 W5        29.90R
FLINT          CLOUDY    50  45  83 NW7       29.92R
GROSSE ILE     CLOUDY    45  43  95 CALM      29.89R
HILLSDALE      CLOUDY    52  46  82 CALM      29.89S
HOWELL         CLOUDY    52  46  78 N3        29.91R

CITY           SKY/WX    TMP DP  RH WIND       PRES   REMARKS
JACKSON        CLOUDY    52  48  86 N3        29.91R
LAMBERTVILLE   CLOUDY    55  50  84 CALM      29.90R
LANSING        CLOUDY    50  43  77 N5        29.92S
LAPEER         CLOUDY    51  46  83 N8        29.92R
MASON          CLOUDY    51  47  87 N7        29.91S
MONROE         CLOUDY    54  51  88 CALM      29.89R
MT. CLEMENS    CLOUDY    52  52  99 NE7       29.88R
PONTIAC        CLOUDY    52  46  80 NW5       29.90R
PORT HOPE        N/A     36  35  96 N3        29.93R
PORT HURON     CLOUDY    46  43  87 N8        29.92R
TRI CITIES     CLOUDY    48  43  82 NW5       29.93R
MIDLAND        CLOUDY    47  40  74 NW6       29.93R
TROY           CLOUDY    57  47  70 N8        29.91S
SAGINAW HB     CLOUDY    48  41  76 NW5       29.93R
$$
MIZ043>046-050>051-056>058-064>065-071>073-077>080-280200-
SOUTHWEST LOWER MICHIGAN

CITY           SKY/WX    TMP DP  RH WIND       PRES   REMARKS
BATTLE CREEK   CLOUDY    49  46  90 N7        29.92S
BENTON HARBOR  CLOUDY    41  35  79 N7        29.93S
BIG RAPIDS     CLOUDY    41  37  86 N6        29.94R
COLDWATER      CLOUDY    52  49  89 N7        29.91R
FREMONT        CLOUDY    40  36  85 N7        29.95R
HOLLAND        CLOUDY    41  35  79 N6        29.95R
GRAND RAPIDS   CLOUDY    47  43  86 NW8       29.93R
IONIA          CLOUDY    47  41  81 N5        29.92R
KALAMAZOO      CLOUDY    49  43  80 N7        29.92S
LUDINGTON      CLOUDY    37  35  93 N5        29.97R WCI  33
MARSHALL       CLOUDY    51  49  93 CALM      29.90F
MOUNT PLEASANT CLOUDY    45  40  81 NW5       29.93R
MUSKEGON       CLOUDY    43  37  79 N8        29.96R
SOUTH HAVEN    CLOUDY    40  37  89 CALM      29.94S
$$
MIZ016>042-280200-
NORTHERN LOWER MICHIGAN

CITY           SKY/WX    TMP DP  RH WIND       PRES   REMARKS
ALPENA         CLOUDY    39  37  92 NW6       29.96R WCI  35
BEAVER ISLAND  CLOUDY    35  34  95 NW3       29.98R
BELLAIRE       CLOUDY    37  35  92 CALM      29.98S
CADILLAC       FOG       36  35  96 N3        29.95R VSB 3/4
CHARLEVOIX     CLOUDY    36  36 100 W7        30.01R WCI  30
FRANKFORT      CLOUDY    37  34  89 CALM      29.98R
GAYLORD        FOG       36  33  89 W3        29.95R VSB 1/2
GRAYLING       CLOUDY    37  34  87 NW5       29.96R WCI  34
HARBOR SPRINGS CLOUDY    33  33 100 CALM      29.98R
HOUGHTON LAKE  CLOUDY    38  35  89 NW7       29.96R WCI  33
MANISTEE       CLOUDY    37  35  92 N3        29.98R
OSCODA         CLOUDY    37  36  98 CALM      29.94S FOG
PELLSTON       CLOUDY    37  33  85 W5        29.97R WCI  33
ROGERS CITY    CLOUDY    37  36  93 NW3       29.97S FOG
TRAVERSE CITY  CLOUDY    38  35  89 NE3       29.97R
$$
MIZ007>008-015-280200-
EASTERN UPPER MICHIGAN

CITY           SKY/WX    TMP DP  RH WIND       PRES   REMARKS
KINROSS        LGT RAIN  34  33  96 NW7       29.96R WCI  28
MACKINAC ISLAN CLOUDY    35  35 100 NW5       29.96R WCI  31
NEWBERRY       CLOUDY    33  32  98 N8        29.96S WCI  25
S. S. MARIE    CLOUDY    36  32  85 NW9       29.95R WCI  29
MUNISING         N/A     34  33  96 CALM      29.99R
$$
MIZ004>006-011>014-085-280200-
CENTRAL UPPER MICHIGAN

CITY           SKY/WX    TMP DP  RH WIND       PRES   REMARKS
MANISTIQUE     CLOUDY    34  34 100 N7        29.98S WCI  28
ESCANABA       CLOUDY    37  34  89 SW3       29.99R
MENOMINEE        N/A    N/A N/A N/A MISG        N/A
SAWYER-GWINN   CLEAR     36  32  87 CALM      29.97S
$$
MIZ001>003-009>011-084-280200-
WESTERN UPPER MICHIGAN

CITY           SKY/WX    TMP DP  RH WIND       PRES   REMARKS
IRON MOUNTAIN  CLOUDY    38  33  82 NW6       29.96R WCI  33
HOUGHTON       CLOUDY    34  29  82 NW8       29.98R WCI  27
COPPER HARBOR    N/A     33  32  96 VRB3      29.99R
IRONWOOD       CLOUDY    40  30  67 CALM      30.01R
$$

ABBREVIATIONS USED IN REMARKS
   TC - TEMPERATURE IN CELSIUS
  WCI - WIND CHILL INDEX
   HX - HEAT INDEX
  VSB - VISIBILITY




USA.gov is the U.S. government's official web portal to all federal, state and local government web resources and services.